This demonstration page uses our WeatherBlox Daily Observations layout. Learn more.

Left ArrowRight Arrow

Hourly Observations for December 6, 2021

Temp ( °F °C ) Dew Point ( °F °C ) Humidity (%) Winds ( mph kmh ) Pressure ( in mb ) Visibility ( mi km ) Precip ( " mm )
12:15 am 00:15 Clear 29 -1.8 15 -9.7 55 55 NNW 13 20 30.32 1027 10 16 N/A
12:35 am 00:35 Clear 28 -2.2 15 -9.6 57 57 NNW 12 19 30.34 1027 10 16 N/A
12:55 am 00:55 Partly Cloudy 28 -2.2 15 -9.2 59 59 NNW 12 19 30.35 1028 10 16 N/A
1:15 am 01:15 Cloudy 29 -1.9 16 -8.7 60 60 NNW 18 30 30.35 1028 10 16 N/A
1:35 am 01:35 Mostly Cloudy 29 -1.7 16 -9 58 58 N 17 28 30.35 1028 10 16 N/A
1:55 am 01:55 Partly Cloudy 29 -1.9 15 -9.5 56 56 NNW 13 20 30.37 1029 10 16 N/A
2:15 am 02:15 Clear 28 -2 15 -9.7 56 56 N 10 17 30.37 1028 10 16 N/A
2:35 am 02:35 Clear 28 -2.3 14 -10 56 56 NW 8 13 30.40 1029 10 16 N/A
2:55 am 02:55 Partly Cloudy 28 -2.3 14 -10 56 56 NNW 14 22 30.40 1029 10 16 N/A
3:15 am 03:15 Partly Cloudy 28 -2.5 14 -10.2 56 56 NNW 15 24 30.40 1029 10 16 N/A
3:35 am 03:35 Partly Cloudy 27 -3 13 -10.4 57 57 NNW 13 20 30.42 1030 10 16 N/A
3:55 am 03:55 Mostly Cloudy 26 -3.2 14 -10.2 59 59 NNW 10 17 30.41 1030 10 16 N/A
4:15 am 04:15 Cloudy 26 -3.2 14 -10 60 60 NNW 12 19 30.42 1030 10 16 N/A
4:35 am 04:35 Partly Cloudy 25 -3.8 14 -10 62 62 NNW 10 17 30.41 1030 10 16 N/A
4:55 am 04:55 Clear 24 -4.2 14 -10 64 64 NNW 9 15 30.42 1030 10 16 N/A
5:15 am 05:15 Partly Cloudy 24 -4.7 14 -10 67 67 NNW 9 15 30.42 1030 10 16 N/A
5:35 am 05:35 Clear 23 -5.2 14 -10.2 68 68 NNW 9 15 30.44 1031 10 16 N/A
5:55 am 05:55 Clear 22 -5.7 14 -10 72 72 NW 12 19 30.44 1031 10 16 N/A
6:15 am 06:15 Clear 22 -5.5 15 -9.5 74 74 NW 14 22 30.45 1031 10 16 N/A
6:35 am 06:35 Clear 21 -5.9 14 -9.8 74 74 NW 12 19 30.46 1032 10 16 N/A
6:55 am 06:55 Clear 21 -6.3 14 -10 75 75 NW 8 13 30.48 1032 10 16 N/A
7:15 am 07:15 Clear 19 -7.4 13 -10.4 79 79 NW 5 7 30.49 1032 10 16 N/A
7:35 am 07:35 Clear 17 -8.4 12 -11 82 82 NW 6 9 30.52 1034 10 16 N/A
7:55 am 07:55 Sunny 17 -8.1 12 -10.9 81 81 NW 5 7 30.51 1033 10 16 N/A
8:15 am 08:15 Sunny 17 -8.4 12 -10.9 82 82 NW 3 6 30.52 1034 10 16 N/A
8:35 am 08:35 Sunny 18 -7.7 13 -10.4 81 81 WNW 3 6 30.52 1034 10 16 N/A
8:55 am 08:55 Sunny 20 -6.8 14 -10.1 78 78 NW 6 9 30.52 1034 10 16 N/A
9:15 am 09:15 Sunny 20 -6.4 13 -10.5 73 73 NW 6 9 30.54 1034 10 16 N/A
9:35 am 09:35 Sunny 21 -6.2 12 -11 69 69 NW 9 15 30.54 1034 10 16 N/A
9:55 am 09:55 Sunny 21 -6.2 11 -11.5 66 66 NW 7 11 30.55 1034 10 16 N/A
10:15 am 10:15 Sunny 21 -6 11 -11.9 63 63 NNW 9 15 30.56 1035 10 16 N/A
10:35 am 10:35 Sunny 22 -5.6 11 -11.8 62 62 NW 6 9 30.55 1035 10 16 N/A
10:55 am 10:55 Sunny 22 -5.3 11 -11.6 62 62 NW 7 11 30.54 1034 10 16 N/A
11:15 am 11:15 Sunny 22 -5.4 11 -11.7 62 62 WNW 6 9 30.55 1035 10 16 N/A
11:35 am 11:35 Sunny 22 -5.3 10 -12 60 60 NNW 8 13 30.53 1034 10 16 N/A
11:55 am 11:55 Sunny 23 -5 10 -12.4 57 57 NNW 6 9 30.52 1033 10 16 N/A
12:15 pm 12:15 Sunny 24 -4.4 10 -12 56 56 NW 6 9 30.51 1033 10 16 N/A
12:35 pm 12:35 Sunny 25 -4.1 11 -11.8 55 55 N N/A 30.49 1032 10 16 N/A
12:55 pm 12:55 Sunny 25 -3.9 11 -11.9 54 54 N 5 7 30.47 1032 10 16 N/A
1:15 pm 13:15 Sunny 25 -3.7 9 -13 49 49 N N/A 30.44 1031 10 16 N/A
1:35 pm 13:35 Sunny 26 -3.6 7 -14.1 44 44 N N/A 30.43 1031 10 16 N/A
1:55 pm 13:55 Sunny 26 -3.2 8 -13.4 46 46 N N/A 30.41 1030 10 16 N/A
2:15 pm 14:15 Sunny 26 -3.2 8 -13.6 45 45 N N/A 30.39 1029 10 16 N/A
2:35 pm 14:35 Sunny 28 -2.4 9 -13 44 44 E 3 6 30.37 1028 10 16 N/A
2:55 pm 14:55 Sunny 28 -2.4 8 -13.6 42 42 N N/A 30.35 1028 10 16 N/A
3:15 pm 15:15 Sunny 28 -2.3 8 -13.5 42 42 E 3 6 30.34 1027 10 16 N/A
3:35 pm 15:35 Sunny 28 -2.3 8 -13.5 42 42 SSE 6 9 30.33 1027 10 16 N/A
3:55 pm 15:55 Sunny 28 -2.2 6 -14.2 40 40 SE 7 11 30.32 1027 10 16 N/A
4:15 pm 16:15 Sunny 28 -2.3 6 -14.6 39 39 SSE 8 13 30.32 1027 10 16 N/A
4:35 pm 16:35 Sunny 28 -2.5 6 -14.2 41 41 SSE 7 11 30.31 1026 10 16 N/A
4:55 pm 16:55 Sunny 27 -2.8 8 -13.6 44 44 SSE 7 11 30.30 1026 10 16 N/A
5:15 pm 17:15 Clear 27 -3 8 -13.1 46 46 S 7 11 30.29 1026 10 16 N/A
5:35 pm 17:35 Clear 26 -3.5 9 -12.8 49 49 SSE 6 9 30.30 1026 10 16 N/A
5:55 pm 17:55 Clear 25 -3.9 9 -13 50 50 SSE 7 11 30.29 1026 10 16 N/A
6:15 pm 18:15 Clear 24 -4.5 8 -13.2 51 51 SSE 7 11 30.29 1026 10 16 N/A
6:35 pm 18:35 Clear 23 -4.8 9 -12.7 54 54 SSE 8 13 30.29 1026 10 16 N/A
6:55 pm 18:55 Mostly Cloudy 23 -5 9 -12.6 56 56 SSE 8 13 30.28 1026 10 16 N/A
7:15 pm 19:15 Cloudy 23 -5 10 -12.5 56 56 SSE 9 15 30.27 1025 10 16 N/A
7:35 pm 19:35 Mostly Cloudy 23 -4.9 10 -12.5 56 56 SSE 9 15 30.25 1024 10 16 N/A
7:55 pm 19:55 Partly Cloudy 24 -4.7 10 -12.2 56 56 SSE 13 20 30.23 1024 10 16 N/A
8:15 pm 20:15 Clear 24 -4.7 10 -12 57 57 SSE 12 19 30.23 1024 10 16 N/A
8:35 pm 20:35 Clear 24 -4.5 11 -11.8 57 57 SSE 13 20 30.22 1023 10 16 N/A
8:55 pm 20:55 Clear 24 -4.5 11 -11.7 58 58 SSE 10 17 30.22 1023 10 16 N/A
9:15 pm 21:15 Clear 24 -4.2 11 -11.5 57 57 SSE 12 19 30.21 1023 10 16 N/A
9:35 pm 21:35 Clear 25 -3.7 12 -11.2 56 56 S 13 20 30.20 1023 10 16 N/A
9:55 pm 21:55 Clear 26 -3.3 12 -10.9 56 56 S 15 24 30.19 1022 10 16 N/A
10:15 pm 22:15 Partly Cloudy 26 -3.1 13 -10.6 57 57 S 16 26 30.17 1022 10 16 N/A
10:35 pm 22:35 Partly Cloudy 27 -3 13 -10.3 58 58 S 15 24 30.16 1021 10 16 N/A
10:55 pm 22:55 Clear 27 -2.8 14 -10 58 58 S 14 22 30.13 1020 10 16 N/A
11:15 pm 23:15 Partly Cloudy 27 -2.8 14 -10 58 58 S 16 26 30.14 1021 10 16 N/A
11:35 pm 23:35 Clear 27 -2.6 15 -9.6 59 59 S 16 26 30.14 1021 10 16 N/A
11:55 pm 23:55 Partly Cloudy 28 -2.3 15 -9.2 60 60 S 18 30 30.12 1020 10 16 N/A

Powered by AerisWeather